Regional Weather Roundup
Issued by NWS

Home | Current Version | Previous Version | Text Only | Print | Product List | Glossary Off
Versions: 1 2 3 4 5 6 7 8 9 10 11 12 13 14 15 16 17 18 19 20 21 22 23 24 25 26 27 28 29 30 31 32 33 34 35 36 37 38 39 40 41 42 43 44 45 46 47 48 49 50

256
ASUS45 KPSR 271810
RWRAZ

ARIZONA HOURLY REGIONAL WEATHER ROUNDUP
NATIONAL WEATHER SERVICE PHOENIX AZ
1100 AM MST TUE SEP 27 2016

NOTE: FAIR INDICATES FEW OR NO CLOUDS BELOW 12,000 FEET WITH NO
SIGNIFICANT WEATHER AND/OR OBSTRUCTIONS TO VISIBILITY.

AZZ001>003-036-271900-
NORTHWEST ARIZONA

CITY           SKY/WX    TMP DP  RH WIND       PRES   REMARKS
BULLHEAD CITY  MOSUNNY   84  48  28 SW8       30.00F
KINGMAN        CLOUDY    70  44  39 E18G26    30.15S
6HR MIN TEMP:  56; 6HR MAX TEMP:  73;

$$

AZZ004>008-015-016-018-271900-
NORTH CENTRAL ARIZONA

CITY           SKY/WX    TMP DP  RH WIND       PRES   REMARKS
GRAND CANYON   CLOUDY    66  36  32 NE9       30.33S
6HR MIN TEMP:  39; 6HR MAX TEMP:  66;

PRESCOTT       CLOUDY    67  47  48 SE10G22   30.23F
6HR MIN TEMP:  57; 6HR MAX TEMP:  67; 6HR PCP:  0.01;

FLAGSTAFF      CLOUDY    55  45  68 E7        30.34F
6HR MIN TEMP:  46; 6HR MAX TEMP:  55; 6HR PCP:  0.05;

PAYSON         MOSUNNY   68  46  45 VRB7G15   30.28S
PAGE           SUNNY     71  37  28 N6        30.22F
6HR MIN TEMP:  55; 6HR MAX TEMP:  71;

$$

AZZ009>014-017-271900-
NORTHEAST ARIZONA

CITY           SKY/WX    TMP DP  RH WIND       PRES   REMARKS
WINSLOW        MOSUNNY   69  40  34 CALM      30.24F
6HR MIN TEMP:  52; 6HR MAX TEMP:  71; 6HR PCP: TRACE;

SAINT JOHNS    MOSUNNY   74  44  34 CALM      30.24F
6HR MIN TEMP:  54; 6HR MAX TEMP:  74;

WINDOW ROCK    CLOUDY    67  34  29 VRB7      30.34F
6HR MIN TEMP:  41; 6HR MAX TEMP:  67;

SHOW LOW       MOSUNNY   63  45  51 S15       30.31F
$$

AZZ023-271900-
GREATER PHOENIX AREA

CITY           SKY/WX    TMP DP  RH WIND       PRES   REMARKS
PHOENIX        CLOUDY    80  49  33 E15       30.00F
6HR MIN TEMP:  71; 6HR MAX TEMP:  80; 6HR PCP: TRACE;

BUCKEYE        MOSUNNY   79  48  34 E17       30.03S
GLENDALE       PTSUNNY   81  50  34 E9        30.04S
LUKE AFB       PTSUNNY   79  49  35 E12       30.01F
6HR MIN TEMP:  70; 6HR MAX TEMP:  82; 6HR PCP: TRACE;

DEER VALLEY    PTSUNNY   78  48  34 SE14G23   30.03S
6HR MIN TEMP:  72; 6HR MAX TEMP:  82;

SCOTTSDALE     CLOUDY    77  50  38 E9        30.06S
6HR MIN TEMP:  72; 6HR MAX TEMP:  81; 6HR PCP: TRACE;

MESA-FALCON    PTSUNNY  N/A N/A N/A N17G23    30.00F
MESA-GATEWAY   LGT RAIN  72  55  56 NE24G30   29.99F
CHANDLER       PTSUNNY   77  50  38 NE28G35   30.01F
$$

AZZ027-028-271900-
SOUTHWEST MARICOPA COUNTY AND PINAL COUNTY

CITY           SKY/WX    TMP DP  RH WIND       PRES   REMARKS
CASA GRANDE    PTSUNNY   75  54  46 E22       30.02F
6HR MIN TEMP:  68; 6HR MAX TEMP:  75;

GILA BEND      MOSUNNY   81  52  36 NE14      29.96F
6HR MIN TEMP:  73; 6HR MAX TEMP:  82; 6HR PCP: TRACE;

$$

AZZ503-504-507>509-271900-
SOUTHEAST ARIZONA

CITY           SKY/WX    TMP DP  RH WIND       PRES   REMARKS
TUCSON         MOSUNNY   76  53  44 SE23G32   30.08F
6HR MIN TEMP:  61; 6HR MAX TEMP:  76; 6HR PCP:  0.10;

DAVIS-MONTHAN  MOSUNNY   74  55  51 E15       30.07F
6HR MIN TEMP:  59; 6HR MAX TEMP:  74; 6HR PCP:  0.06;

NOGALES        PTSUNNY   72  54  53 VRB5      30.11F
6HR MIN TEMP:  55; 6HR MAX TEMP:  72; 6HR PCP:  0.02;

SIERRA VISTA   PTSUNNY   64  52  63 E9        30.21F
                                      6HR PCP:  0.14;

DOUGLAS        PTSUNNY   71  52  50 E14G21    30.18F
6HR MIN TEMP:  56; 6HR MAX TEMP:  72;

SAFFORD        CLOUDY    66  46  48 S3        30.21F
6HR MIN TEMP:  59; 6HR MAX TEMP:  66;

$$

AZZ020-021-025-026-031-271900-
SOUTHWEST ARIZONA

CITY           SKY/WX    TMP DP  RH WIND       PRES   REMARKS
YUMA           NOT AVBL
$$

CAZ031-033-041-043-047-048-061-271900-
SOUTHERN CALIFORNIA

CITY           SKY/WX    TMP DP  RH WIND       PRES   REMARKS
DOWNTOWN L.A.  SUNNY     94  44  17 VRB3      29.85F
6HR MIN TEMP:  71; 6HR MAX TEMP:  94;

L.A. AIRPORT   MOSUNNY   93  37  14 CALM      29.85F
6HR MIN TEMP:  74; 6HR MAX TEMP:  93;

SAN DIEGO      PTSUNNY   89  51  27 S10       29.87S
6HR MIN TEMP:  80; 6HR MAX TEMP:  92;

BURBANK        SUNNY     90  39  16 SE8G16    29.89F
6HR MIN TEMP:  70; 6HR MAX TEMP:  91;

ONTARIO        PTSUNNY   86  45  23 VRB3      29.91F
6HR MIN TEMP:  70; 6HR MAX TEMP:  86;

RIVERSIDE      PTSUNNY   91  45  20 E12       29.90F
6HR MIN TEMP:  69; 6HR MAX TEMP:  92;

PALM SPRINGS   PTSUNNY   86  51  29 E6        29.97S
6HR MIN TEMP:  72; 6HR MAX TEMP:  86;

EL CENTRO NAS  PTSUNNY   88  48  25 VRB6      29.93F
6HR MIN TEMP:  69; 6HR MAX TEMP:  88;

IMPERIAL       MOSUNNY   89  53  29 N5        29.91F
6HR MIN TEMP:  72; 6HR MAX TEMP:  89;

BLYTHE         CLOUDY    87  50  27 E10       29.95F
6HR MIN TEMP:  76; 6HR MAX TEMP:  87;

NEEDLES        CLOUDY    83  52  34 E9        30.02R
6HR MIN TEMP:  77; 6HR MAX TEMP:  84;

$$

NVZ020-UTZ003-271900-
SOUTHERN NEVADA-UTAH

CITY           SKY/WX    TMP DP  RH WIND       PRES   REMARKS
LAS VEGAS      MOSUNNY   84  33  16 VRB6      30.05F
6HR MIN TEMP:  69; 6HR MAX TEMP:  84;

SALT LAKE CITY MOSUNNY   70  48  45 CALM      30.21F
6HR MIN TEMP:  52; 6HR MAX TEMP:  70;

$$

NMZ009-TXZ055-271900-
NEW MEXICO-WEST TEXAS

CITY           SKY/WX    TMP DP  RH WIND       PRES   REMARKS
ALBUQUERQUE    MOSUNNY   66  35  31 CALM      30.31F
6HR MIN TEMP:  51; 6HR MAX TEMP:  67;

EL PASO        PTSUNNY   65  40  39 E5        30.26F
6HR MIN TEMP:  57; 6HR MAX TEMP:  66;

$$


........................KEY........................
SKY/WX - SKY CONDITION/WEATHER
TMP    - TEMPERATURE IN FAHRENHEIT
DP     - DEW POINT IN FAHRENHEIT
RH     - RELATIVE HUMIDITY IN PERCENT
WIND   - DIRECTION AND SPEED IN MILES PER HOUR (MPH)
VRB    - VARIABLE WIND DIRECTION
PRES   - MEAN SEA LEVEL PRESSURE IN INCHES OF MERCURY
         F - FALLING PRESSURE   R - RISING PRESSURE
         S - STEADY PRESSURE
VSB    - VISIBILITY IN MILES
HX     - HEAT INDEX IN FAHRENHEIT
WCI    - WIND CHILL INDEX IN FAHRENHEIT
TC     - TEMPERATURE IN CELSIUS WHICH IS ALSO KNOWN AS
         TEMPERATURE IN CENTIGRADE
AFB    - AIR FORCE BASE
         LUKE AFB IS LUKE AIR FORCE BASE
         DAVIS-MONTHAN IS DAVIS-MONTHAN AIR FORCE BASE
NAS    - NAVAL AIR STATION
         EL CENTRO NAS IS EL CENTRO NAVAL AIR STATION
N/A    - NOT AVAILABLE





USA.gov is the U.S. government's official web portal to all federal, state and local government web resources and services.